Location: Unspecified
(47.4992°N, 121.7766°W)
Time: 03:48:51
(UTC-08:00)

Cosmos 2058 - Pass Details

Date: 05 February 2021
Orbit: 561 x 584 km, 82.5° (Epoch: 24 February)

Event Time Altitude Azimuth Distance (km) Brightness Sun altitude
Rises 05:58:27 0° 346° (NNW) 2,767 6.2 -15.3°
Reaches altitude 10° 06:00:40 10° 343° (NNW) 1,864 5.3 -15.0°
Maximum altitude 06:04:41 56° 265° (W) 670 2.9 -14.3°
Drops below altitude 10° 06:08:40 10° 187° (S) 1,847 5.5 -13.6°
Sets 06:10:51 0° 183° (S) 2,738 6.5 -13.2°
